[[{"header":{"parameterUnit":"m.s-1","parameterCategory":2,"la1":30.2991,"la2":30.254,"lo1":-89.0895,"lo2":-89.0444,"dy":0.0017,"dx":0.0017,"nx":28,"ny":28,"refTime":"2025-09-15T09:00:00:Z","depth":"0","parameterNumber":2,"parameterNumberName":"U-component_of_CURRENTS"},"data":[0,0,0,0,0,0,0,0,0,0,0,0,0,0,0,0,0,0,0,0,0,0,0,0,0,0,0,0,0,0,0,0,0,0,0,0,0,0,0,0,0,0,0,0,0,0,0,0,0,0,0,0,0,0,0,0,0,0,-0.2537,-0.2537,0,-0.2557,-0.2557,-0.2557,-0.2614,-0.2615,-0.2617,-0.2618,-0.2631,-0.263,-0.2629,0,0,0,0,0,0,0,0,0,0,0,0,0,-0.2488,-0.2488,-0.2536,-0.2537,-0.2537,-0.2557,-0.2557,-0.2557,-0.2614,-0.2615,-0.2617,-0.2619,-0.2631,-0.263,-0.2629,0,0,0,0,0,0,0,0,0,0,0,0,0,-0.2507,-0.2489,-0.2536,-0.257,-0.2573,-0.2557,-0.2557,-0.2557,-0.2613,-0.2615,-0.2618,-0.262,-0.2632,-0.263,-0.2629,-0.2576,0,0,-0.2624,-0.2624,0,0,0,0,0,0,0,0,-0.2505,-0.2508,-0.2564,-0.2567,-0.2571,-0.2587,-0.2545,-0.2564,-0.2613,-0.2596,-0.2618,-0.2621,-0.2615,-0.2615,-0.2611,-0.2577,-0.2578,-0.2624,-0.2623,-0.2622,-0.2622,0,0,0,0,0,0,0,-0.2504,-0.2507,-0.2542,-0.2565,-0.2569,-0.2564,-0.2569,-0.2548,-0.2591,-0.2597,-0.2602,-0.2607,-0.2617,-0.2613,-0.2612,-0.2578,-0.2624,-0.2623,-0.2622,-0.2621,-0.2521,-0.2519,0,0,0,0,0,0,-0.2507,-0.2506,-0.2542,-0.2543,-0.2546,-0.2563,-0.2569,-0.2578,-0.2592,-0.2597,-0.2605,-0.261,-0.2614,-0.2614,-0.2613,-0.2533,-0.2623,-0.2621,-0.262,-0.2523,-0.252,-0.2519,0,0,0,0,0,0,-0.2506,-0.251,-0.2541,-0.2527,-0.2531,-0.2563,-0.2572,-0.2577,-0.258,-0.2599,-0.2603,-0.2604,-0.2616,-0.2615,-0.2601,-0.2535,-0.262,-0.2619,-0.2525,-0.2522,-0.252,-0.2386,0,0,0,0,0,0,-0.2504,-0.2509,-0.25,-0.2527,-0.2532,-0.25,-0.257,-0.2576,-0.2581,-0.2587,-0.2598,-0.2602,-0.2617,-0.2603,-0.2599,-0.2535,-0.2618,-0.2527,-0.2524,-0.252,-0.2392,-0.2379,-0.2367,0,0,0,0,0,-0.2503,-0.2443,-0.2499,-0.2503,-0.2523,-0.2498,-0.2497,-0.2527,-0.2579,-0.2545,-0.2584,-0.2602,-0.2579,-0.26,-0.2596,-0.253,-0.2529,-0.2524,-0.2521,-0.2398,-0.2382,-0.2368,0,0,0,0,0,0,-0.2378,-0.2445,-0.2506,-0.2465,-0.2484,-0.2508,-0.2468,-0.2519,-0.2523,-0.2532,-0.2581,-0.2583,-0.2537,-0.2561,-0.2584,-0.2495,-0.2555,-0.255,-0.2463,-0.2447,-0.2435,-0.2463,-0.2617,0,0,0,0,0,-0.2362,-0.236,-0.2418,-0.2383,-0.239,-0.2443,-0.2437,-0.2465,-0.2482,-0.2487,-0.2505,-0.2522,-0.2512,-0.2508,-0.2492,-0.2448,-0.2476,-0.2405,-0.2392,-0.2381,-0.2403,-0.2391,-0.238,-0.2506,-0.2506,-0.2506,0,0,-0.2305,-0.2341,-0.2339,-0.2362,-0.238,-0.2378,-0.2441,-0.2411,-0.2415,-0.2483,-0.2464,-0.2465,-0.249,-0.2436,-0.2417,-0.2453,-0.2351,-0.2376,-0.2366,-0.2395,-0.2386,-0.2374,-0.2363,-0.2503,-0.2503,-0.2504,0,0,-0.2198,-0.2224,-0.2209,-0.2226,-0.2256,-0.2285,-0.2284,-0.2311,-0.2321,-0.2311,-0.2357,-0.2338,-0.2327,-0.2327,-0.2334,-0.2247,-0.2278,-0.2229,-0.2191,-0.2176,-0.2166,-0.2158,-0.2138,-0.2129,-0.223,-0.223,-0.223,0,-0.2135,-0.2149,-0.2185,-0.2182,-0.2198,-0.2253,-0.2246,-0.2245,-0.2265,-0.2275,-0.2285,-0.2281,-0.2278,-0.2254,-0.2221,-0.2214,-0.2222,-0.224,-0.2159,-0.2152,-0.2146,-0.2128,-0.212,-0.2223,-0.2224,-0.2225,-0.2225,0,-0.2054,-0.2068,-0.2036,-0.2094,-0.2092,-0.2069,-0.2112,-0.21,-0.2132,-0.2159,-0.2129,-0.2125,-0.2144,-0.2107,-0.2139,-0.2085,-0.2107,-0.2134,-0.2196,-0.2125,-0.2111,-0.2104,-0.2213,-0.2216,-0.2218,-0.222,0,0,-0.1925,-0.1985,-0.198,-0.2023,-0.2056,-0.2049,-0.2034,-0.2054,-0.2071,-0.2047,-0.2062,-0.2009,-0.203,-0.2041,-0.2049,-0.2029,-0.1955,-0.2062,-0.2065,-0.204,-0.1921,-0.183,-0.1816,-0.1969,-0.1968,-0.1967,-0.1914,0,-0.1874,-0.1879,-0.1916,-0.1919,-0.1935,-0.1983,-0.1978,-0.1993,-0.2007,-0.2012,-0.2002,-0.1999,-0.1999,-0.2,-0.1973,-0.198,-0.1941,-0.1968,-0.1999,-0.2,-0.1926,-0.1806,-0.1712,-0.1649,-0.1909,-0.1908,-0.1907,0,-0.181,-0.1836,-0.184,-0.1905,-0.1913,-0.1911,-0.1947,-0.1949,-0.1964,-0.1974,-0.1969,-0.1983,-0.1954,-0.1961,-0.1921,-0.1943,-0.1922,-0.1912,-0.191,-0.1881,-0.1899,-0.1771,-0.1629,-0.163,-0.1899,-0.1899,-0.19,0,-0.175,-0.1786,-0.1802,-0.1818,-0.1878,-0.1883,-0.1909,-0.1932,-0.1948,-0.1956,-0.1967,-0.195,-0.1942,-0.1919,-0.1891,-0.1913,-0.1844,-0.1876,-0.1766,-0.1761,-0.1718,-0.1709,-0.1584,-0.1828,-0.1828,-0.1828,-0.1828,0,-0.1701,-0.1709,-0.1779,-0.1787,-0.1803,-0.1853,-0.1865,-0.1887,-0.1921,-0.1905,-0.1947,-0.1923,-0.1932,-0.19,-0.1879,-0.1788,-0.183,-0.1737,-0.1729,-0.1662,-0.1649,-0.1683,-0.1731,-0.1826,-0.1827,-0.1827,-0.1827,0,-0.1628,-0.1677,-0.17,-0.1761,-0.1778,-0.1785,-0.1849,-0.1862,-0.1898,-0.1878,-0.188,-0.1906,-0.1844,-0.1835,-0.1788,-0.1755,-0.1658,-0.1651,-0.1562,-0.1543,-0.1435,-0.1479,-0.1403,-0.1362,-0.1522,-0.1519,-0.1517,0,-0.1592,-0.1597,-0.1663,-0.1676,-0.17,-0.1733,-0.1758,-0.183,-0.1833,-0.1833,-0.1807,-0.178,-0.1681,-0.1607,-0.1564,-0.1489,-0.1531,-0.1377,-0.1387,-0.1383,-0.1429,-0.1479,-0.1456,-0.1272,-0.1268,-0.1264,-0.1262,0,-0.151,-0.1534,-0.1555,-0.1585,-0.1614,-0.1611,-0.1638,-0.1629,-0.1665,-0.1629,-0.151,-0.1436,-0.1421,-0.1305,-0.128,-0.1239,-0.1343,-0.1303,-0.1325,-0.1228,-0.1252,-0.1224,-0.1365,-0.1231,-0.1234,-0.1237,-0.1238,-0.124,-0.1432,-0.1429,-0.1455,-0.1468,-0.1482,-0.1388,-0.1327,-0.1315,-0.1218,-0.1065,-0.1128,-0.0942,-0.108,-0.1018,-0.1,-0.1005,-0.1092,-0.0994,-0.105,-0.1102,-0.1046,-0.1103,-0.0945,-0.0947,-0.0948,-0.0949,-0.095,0,-0.1322,-0.1327,-0.1336,-0.1298,-0.122,-0.1265,-0.118,-0.1078,-0.0858,-0.0728,-0.0559,-0.0477,-0.0516,-0.0681,-0.0809,-0.0785,-0.0797,-0.0795,-0.0864,-0.0853,-0.0908,-0.0878,-0.0666,-0.0666,-0.0666,-0.0666,-0.0666,-0.0666,-0.1265,-0.1233,-0.1237,-0.1042,-0.0989,-0.0816,-0.071,-0.0554,-0.0432,-0.0131,0.0012,0.0055,-0.028,-0.0641,-0.0764,-0.0732,-0.0762,-0.0722,-0.0782,-0.0855,-0.0879,-0.0903,-0.0882,-0.0674,-0.0674,-0.0673,-0.0673,-0.0673]},{"header":{"parameterUnit":"m.s-1","parameterCategory":2,"la1":30.2991,"la2":30.254,"lo1":-89.0895,"lo2":-89.0444,"dy":0.0017,"dx":0.0017,"nx":28,"ny":28,"refTime":"2025-09-15T09:00:00:Z","depth":"0","parameterNumber":3,"parameterNumberName":"V-component_of_CURRENTS"},"data":[0,0,0,0,0,0,0,0,0,0,0,0,0,0,0,0,0,0,0,0,0,0,0,0,0,0,0,0,0,0,0,0,0,0,0,0,0,0,0,0,0,0,0,0,0,0,0,0,0,0,0,0,0,0,0,0,0,0,-0.0069,-0.0068,0,0.0063,0.0065,0.0067,0.0209,0.0211,0.0213,0.0214,0.0397,0.04,0.0403,0,0,0,0,0,0,0,0,0,0,0,0,0,-0.015,-0.0149,-0.0069,-0.0068,-0.0066,0.0063,0.0065,0.0067,0.0209,0.0211,0.0213,0.0215,0.0396,0.04,0.0404,0,0,0,0,0,0,0,0,0,0,0,0,0,-0.0074,-0.0149,-0.0069,0.0018,0.0027,0.0062,0.0065,0.0068,0.0208,0.0211,0.0214,0.0216,0.0395,0.0399,0.0404,0.038,0,0,0.0419,0.0421,0,0,0,0,0,0,0,0,-0.0078,-0.0071,0.0004,0.0012,0.0022,0.012,0.0103,0.0174,0.0208,0.0142,0.0215,0.0218,0.0305,0.0317,0.034,0.0389,0.0396,0.0419,0.0422,0.0424,0.0425,0,0,0,0,0,0,0,-0.0084,-0.0075,-0.0014,0.0005,0.0016,0.0067,0.0081,0.0118,0.021,0.0148,0.0158,0.0168,0.0311,0.0335,0.0345,0.0399,0.0419,0.0423,0.0426,0.0428,0.0511,0.051,0,0,0,0,0,0,-0.0111,-0.0081,-0.0018,-0.001,-0.0026,0.0066,0.0081,0.0088,0.0209,0.0229,0.0165,0.0174,0.0325,0.0339,0.0352,0.0364,0.0424,0.0429,0.0431,0.0512,0.0511,0.051,0,0,0,0,0,0,-0.0114,-0.0107,-0.0023,-0.0044,-0.003,0.0064,0.0071,0.0089,0.0119,0.0221,0.0243,0.0176,0.0328,0.0345,0.039,0.0371,0.0431,0.0435,0.0512,0.0511,0.051,0.0367,0,0,0,0,0,0,-0.0117,-0.0109,-0.0119,-0.0047,-0.003,-0.0008,0.0068,0.009,0.0119,0.0132,0.0237,0.0257,0.0331,0.0382,0.0395,0.0379,0.0439,0.0513,0.0512,0.0511,0.0372,0.0361,0.0351,0,0,0,0,0,-0.012,-0.0138,-0.012,-0.0113,-0.0045,-0.0009,0.0004,0.0082,0.0116,0.012,0.0195,0.0254,0.0384,0.0385,0.04,0.0385,0.0514,0.0512,0.0511,0.0377,0.0363,0.0351,0,0,0,0,0,0,-0.0176,-0.0123,-0.0102,-0.0103,-0.0066,0.0014,0.0023,0.0064,0.0123,0.0139,0.0237,0.026,0.0289,0.0354,0.0353,0.0408,0.0461,0.0462,0.0354,0.0342,0.0332,0.0338,0.0443,0,0,0,0,0,-0.0201,-0.0197,-0.0143,-0.0147,-0.0133,-0.0065,-0.0043,0.0005,0.0066,0.0096,0.0164,0.0239,0.029,0.033,0.0382,0.0405,0.0464,0.041,0.0399,0.039,0.0406,0.0454,0.0449,0.0505,0.0505,0.0505,0,0,-0.0222,-0.0196,-0.0193,-0.0159,-0.0121,-0.0104,-0.0043,-0.0018,0.0002,0.0102,0.0143,0.0192,0.0284,0.0316,0.0337,0.0373,0.0401,0.0388,0.0379,0.0401,0.0452,0.0446,0.0442,0.0504,0.0504,0.0504,0,0,-0.0256,-0.0245,-0.0246,-0.0225,-0.0185,-0.0146,-0.0148,-0.0085,-0.0048,-0.0019,0.0058,0.0098,0.0179,0.0244,0.0287,0.0248,0.033,0.0261,0.0228,0.0272,0.0268,0.0265,0.0311,0.0313,0.0272,0.0271,0.0271,0,-0.0282,-0.0279,-0.0244,-0.0239,-0.0226,-0.0172,-0.0169,-0.0135,-0.0065,-0.0043,-0.0018,0.0089,0.015,0.0206,0.0199,0.0223,0.0266,0.0261,0.0256,0.0255,0.0254,0.0303,0.0307,0.0264,0.0265,0.0266,0.0266,0,-0.0304,-0.0308,-0.0312,-0.0286,-0.0272,-0.0268,-0.022,-0.0205,-0.0171,-0.0125,-0.0084,-0.001,0.0069,0.0077,0.0131,0.0157,0.0191,0.0219,0.0282,0.024,0.0294,0.0301,0.0254,0.0257,0.0259,0.026,0,0,-0.0338,-0.0328,-0.0329,-0.0332,-0.03,-0.0289,-0.0275,-0.024,-0.0221,-0.0176,-0.0143,-0.008,-0.0038,0.0015,0.0071,0.0112,0.0124,0.0161,0.0167,0.0196,0.0225,0.0262,0.0274,0.0145,0.0146,0.0147,0.0255,0,-0.0363,-0.038,-0.0359,-0.0374,-0.0381,-0.0341,-0.033,-0.0294,-0.0253,-0.0214,-0.0148,-0.01,-0.006,-0.0031,0.001,0.0104,0.0141,0.0094,0.0274,0.028,0.0308,0.0283,0.0329,0.0431,0.0263,0.0264,0.0265,0,-0.0385,-0.0397,-0.0421,-0.0423,-0.0419,-0.0417,-0.0391,-0.0372,-0.0307,-0.0272,-0.0216,-0.0156,-0.0084,-0.0056,0.0081,0.0049,0.0127,0.0191,0.0197,0.0296,0.0331,0.0453,0.0452,0.0564,0.0278,0.0277,0.0276,0,-0.043,-0.0438,-0.0465,-0.0466,-0.0455,-0.0455,-0.0443,-0.0392,-0.0363,-0.0305,-0.0267,-0.0186,-0.012,-0.0031,0.0106,0.0095,0.0257,0.0262,0.0368,0.0372,0.0484,0.0496,0.061,0.0349,0.0349,0.0348,0.0348,0,-0.0469,-0.0488,-0.049,-0.0507,-0.053,-0.0502,-0.0501,-0.0473,-0.041,-0.0327,-0.0297,-0.0206,-0.011,0.0002,0.0101,0.0268,0.0259,0.0369,0.0404,0.0433,0.0439,0.0603,0.0637,0.0352,0.0352,0.0351,0.035,0,-0.0515,-0.0516,-0.0547,-0.0553,-0.0554,-0.0571,-0.0541,-0.0507,-0.0464,-0.035,-0.0326,-0.0215,-0.0067,0.003,0.0199,0.0283,0.0497,0.0475,0.05,0.0535,0.0719,0.0742,0.0908,0.099,0.0602,0.0604,0.0605,0,-0.054,-0.0562,-0.059,-0.0599,-0.0603,-0.0615,-0.0588,-0.0542,-0.0452,-0.0306,-0.0208,-0.0102,0.0069,0.0268,0.0375,0.0522,0.0598,0.0661,0.0643,0.0745,0.0798,0.0805,0.0862,0.0732,0.0734,0.0736,0.0738,0,-0.0585,-0.0594,-0.0619,-0.0627,-0.0616,-0.0584,-0.0514,-0.046,-0.0317,-0.0197,0.0054,0.0171,0.0316,0.0485,0.0577,0.0671,0.075,0.0704,0.0815,0.0916,0.093,0.102,0.0641,0.0754,0.0753,0.0751,0.075,0.075,-0.0608,-0.0636,-0.064,-0.0627,-0.0589,-0.0463,-0.0414,-0.0278,-0.0104,0.0149,0.0296,0.0524,0.0657,0.0779,0.0843,0.0951,0.0905,0.103,0.1053,0.1052,0.1125,0.0775,0.0919,0.0919,0.0918,0.0918,0.0917,0,-0.0614,-0.0615,-0.062,-0.0554,-0.0433,-0.043,-0.0274,-0.0179,0.0074,0.0313,0.0579,0.0931,0.105,0.1093,0.1183,0.1295,0.1317,0.136,0.1392,0.1436,0.1148,0.1148,0.1342,0.1342,0.1342,0.1342,0.1341,0.1341,-0.0614,-0.0604,-0.0577,-0.0365,-0.03,-0.0126,-0.0024,0.0109,0.0281,0.0638,0.0895,0.1113,0.1265,0.1444,0.1568,0.1597,0.1724,0.1704,0.1767,0.1572,0.1542,0.1515,0.1525,0.1794,0.1795,0.2068,0.207,0.2072]}],[{"header":{"parameterUnit":"m.s-1","parameterCategory":2,"la1":30.2991,"la2":30.254,"lo1":-89.0895,"lo2":-89.0444,"dy":0.0017,"dx":0.0017,"nx":28,"ny":28,"refTime":"2025-09-15T09:00:00:Z","depth":"2","parameterNumber":2,"parameterNumberName":"U-component_of_CURRENTS"},"data":[0,0,0,0,0,0,0,0,0,0,0,0,0,0,0,0,0,0,0,0,0,0,0,0,0,0,0,0,0,0,0,0,0,0,0,0,0,0,0,0,0,0,0,0,0,0,0,0,0,0,0,0,0,0,0,0,0,0,-0.2016,-0.2017,0,-0.2036,-0.2036,-0.2036,-0.2055,-0.2056,-0.2057,-0.2058,-0.2147,-0.2149,-0.215,0,0,0,0,0,0,0,0,0,0,0,0,0,-0.1929,-0.1931,-0.2016,-0.2017,-0.2018,-0.2036,-0.2036,-0.2036,-0.2055,-0.2056,-0.2057,-0.2058,-0.2147,-0.2148,-0.215,0,0,0,0,0,0,0,0,0,0,0,0,0,-0.1954,-0.1931,-0.2016,-0.2034,-0.2036,-0.2037,-0.2036,-0.2036,-0.2055,-0.2056,-0.2057,-0.2058,-0.2146,-0.2148,-0.2151,-0.2141,0,0,-0.2158,-0.2159,0,0,0,0,0,0,0,0,-0.1953,-0.1957,-0.2031,-0.2033,-0.2036,-0.205,-0.2039,-0.2077,-0.2055,-0.2041,-0.2058,-0.2059,-0.2124,-0.2128,-0.212,-0.2145,-0.2149,-0.2158,-0.216,-0.2161,-0.2162,0,0,0,0,0,0,0,-0.1951,-0.1955,-0.2018,-0.2032,-0.2035,-0.202,-0.2024,-0.2045,-0.2072,-0.2042,-0.2046,-0.2057,-0.2125,-0.2117,-0.2122,-0.215,-0.2158,-0.216,-0.2162,-0.2163,-0.2179,-0.2178,0,0,0,0,0,0,-0.1963,-0.1954,-0.2017,-0.2019,-0.2003,-0.2021,-0.2026,-0.2039,-0.207,-0.2078,-0.2056,-0.2058,-0.2112,-0.2119,-0.2126,-0.2125,-0.2161,-0.2163,-0.2164,-0.218,-0.2179,-0.2177,0,0,0,0,0,0,-0.1961,-0.1969,-0.2017,-0.1992,-0.1998,-0.2022,-0.2036,-0.2039,-0.2044,-0.2081,-0.2089,-0.2061,-0.2114,-0.2122,-0.2143,-0.2129,-0.2164,-0.2166,-0.2181,-0.2179,-0.2178,-0.2119,0,0,0,0,0,0,-0.1959,-0.1968,-0.198,-0.1993,-0.2,-0.2019,-0.2036,-0.2039,-0.2052,-0.2055,-0.2088,-0.2096,-0.2115,-0.2139,-0.2146,-0.2133,-0.2168,-0.2182,-0.218,-0.2179,-0.2122,-0.2115,-0.211,0,0,0,0,0,-0.1955,-0.1964,-0.198,-0.1988,-0.2016,-0.202,-0.202,-0.2037,-0.2051,-0.2047,-0.2068,-0.2096,-0.2131,-0.2141,-0.2148,-0.2136,-0.2183,-0.2181,-0.2179,-0.2125,-0.2117,-0.211,0,0,0,0,0,0,-0.194,-0.1968,-0.1985,-0.2006,-0.2016,-0.2025,-0.2025,-0.2039,-0.2049,-0.2055,-0.2088,-0.2097,-0.2107,-0.2129,-0.2138,-0.2132,-0.216,-0.2159,-0.2116,-0.2109,-0.2103,-0.2108,-0.217,0,0,0,0,0,-0.1943,-0.1947,-0.1977,-0.1989,-0.1996,-0.2011,-0.2017,-0.2028,-0.2041,-0.2046,-0.207,-0.2089,-0.2098,-0.2112,-0.2124,-0.2128,-0.2136,-0.2122,-0.2116,-0.2111,-0.2119,-0.2107,-0.2101,-0.217,-0.217,-0.217,0,0,-0.1937,-0.1956,-0.1959,-0.1985,-0.1991,-0.1995,-0.2015,-0.202,-0.2022,-0.2056,-0.2061,-0.2072,-0.2094,-0.209,-0.2096,-0.2112,-0.209,-0.2108,-0.2103,-0.2115,-0.2104,-0.2098,-0.2092,-0.2168,-0.2169,-0.2169,0,0,-0.1914,-0.1948,-0.1938,-0.195,-0.1969,-0.1981,-0.1987,-0.2,-0.2005,-0.2012,-0.2028,-0.203,-0.2056,-0.2055,-0.2062,-0.2031,-0.2056,-0.2036,-0.2015,-0.2002,-0.1996,-0.1992,-0.1971,-0.1965,-0.2035,-0.2035,-0.2035,0,-0.1902,-0.1914,-0.1934,-0.1933,-0.1948,-0.1977,-0.1976,-0.1979,-0.1996,-0.2001,-0.2011,-0.2021,-0.2035,-0.2027,-0.201,-0.2018,-0.2016,-0.2041,-0.1994,-0.199,-0.1986,-0.1966,-0.196,-0.2032,-0.2032,-0.2033,-0.2033,0,-0.1871,-0.1891,-0.1886,-0.1899,-0.1912,-0.1915,-0.1938,-0.1944,-0.1961,-0.1968,-0.1967,-0.197,-0.1982,-0.1972,-0.1984,-0.1961,-0.1969,-0.1985,-0.2013,-0.1975,-0.1956,-0.1951,-0.2027,-0.2028,-0.2029,-0.203,0,0,-0.1803,-0.1854,-0.185,-0.1871,-0.1901,-0.1907,-0.1912,-0.1927,-0.1936,-0.1935,-0.1939,-0.1925,-0.1934,-0.1941,-0.1944,-0.1928,-0.1883,-0.1945,-0.1946,-0.1925,-0.185,-0.1769,-0.1756,-0.1894,-0.1894,-0.1893,-0.184,0,-0.1768,-0.1779,-0.1809,-0.1822,-0.1837,-0.1876,-0.1883,-0.1901,-0.1916,-0.1924,-0.1918,-0.1922,-0.192,-0.1922,-0.1902,-0.1902,-0.1872,-0.1896,-0.1891,-0.1891,-0.1823,-0.1747,-0.1625,-0.156,-0.1835,-0.1834,-0.1834,0,-0.1718,-0.1743,-0.1755,-0.1815,-0.1822,-0.183,-0.1864,-0.1875,-0.1894,-0.1906,-0.1905,-0.1915,-0.1895,-0.1898,-0.1861,-0.188,-0.1858,-0.1846,-0.1844,-0.1791,-0.1799,-0.1647,-0.1541,-0.1826,-0.1826,-0.1827,-0.1828,0,-0.1665,-0.1704,-0.1722,-0.1739,-0.1799,-0.1808,-0.1835,-0.1863,-0.1878,-0.1894,-0.1904,-0.1894,-0.1886,-0.1864,-0.1835,-0.1853,-0.179,-0.1814,-0.1713,-0.1708,-0.1614,-0.16,-0.1772,-0.1772,-0.1772,-0.1772,-0.1772,0,-0.1623,-0.1634,-0.1702,-0.1712,-0.173,-0.1782,-0.1797,-0.1823,-0.1857,-0.186,-0.189,-0.1876,-0.1878,-0.1848,-0.1826,-0.1739,-0.1778,-0.1689,-0.1679,-0.1586,-0.1571,-0.1824,-0.1831,-0.177,-0.1771,-0.1771,-0.1771,0,-0.1556,-0.1604,-0.1628,-0.1691,-0.1707,-0.1718,-0.1777,-0.1782,-0.1831,-0.1835,-0.184,-0.1857,-0.1802,-0.1787,-0.1742,-0.171,-0.1653,-0.1612,-0.1494,-0.147,-0.1585,-0.1589,-0.1496,-0.1492,-0.1489,-0.1487,-0.1485,0,-0.1523,-0.153,-0.1595,-0.1603,-0.1628,-0.1661,-0.1673,-0.1746,-0.1753,-0.1803,-0.1785,-0.1764,-0.1705,-0.1614,-0.1536,-0.1457,-0.1542,-0.1323,-0.1325,-0.1551,-0.1552,-0.1562,-0.157,-0.1175,-0.1171,-0.1167,-0.1164,0,-0.145,-0.1474,-0.1494,-0.1512,-0.1529,-0.1553,-0.1581,-0.1594,-0.1662,-0.1682,-0.1672,-0.1642,-0.1539,-0.1384,-0.1284,-0.1234,-0.1329,-0.1244,-0.1498,-0.1264,-0.1244,-0.1248,-0.1267,-0.1132,-0.1135,-0.1138,-0.1139,-0.1141,-0.1378,-0.1372,-0.1391,-0.1395,-0.1413,-0.1407,-0.1394,-0.1434,-0.1443,-0.1442,-0.1507,-0.1429,-0.1378,-0.114,-0.1049,-0.0974,-0.1072,-0.1049,-0.1063,-0.108,-0.1051,-0.1028,-0.0869,-0.087,-0.0872,-0.0873,-0.0874,0,-0.1274,-0.1272,-0.1268,-0.1267,-0.1232,-0.1284,-0.1291,-0.1259,-0.123,-0.1253,-0.1249,-0.1111,-0.0983,-0.0928,-0.0745,-0.0704,-0.0722,-0.0689,-0.0723,-0.0754,-0.0782,-0.0742,-0.0475,-0.0474,-0.0473,-0.0473,0,0,-0.1217,-0.1167,-0.116,-0.1065,-0.1067,-0.0995,-0.0977,-0.0959,-0.0949,-0.0902,-0.0879,-0.0963,-0.0922,-0.0731,-0.0654,-0.053,-0.0646,-0.05,-0.0816,-0.0888,-0.0916,-0.0979,-0.0949,0,0,0,0,0]},{"header":{"parameterUnit":"m.s-1","parameterCategory":2,"la1":30.2991,"la2":30.254,"lo1":-89.0895,"lo2":-89.0444,"dy":0.0017,"dx":0.0017,"nx":28,"ny":28,"refTime":"2025-09-15T09:00:00:Z","depth":"2","parameterNumber":3,"parameterNumberName":"V-component_of_CURRENTS"},"data":[0,0,0,0,0,0,0,0,0,0,0,0,0,0,0,0,0,0,0,0,0,0,0,0,0,0,0,0,0,0,0,0,0,0,0,0,0,0,0,0,0,0,0,0,0,0,0,0,0,0,0,0,0,0,0,0,0,0,-0.0234,-0.0233,0,-0.0162,-0.0161,-0.0161,-0.0103,-0.0103,-0.0102,-0.0102,0.005,0.0053,0.0057,0,0,0,0,0,0,0,0,0,0,0,0,0,-0.0285,-0.0285,-0.0234,-0.0233,-0.0232,-0.0162,-0.0161,-0.016,-0.0103,-0.0103,-0.0102,-0.0101,0.0049,0.0053,0.0057,0,0,0,0,0,0,0,0,0,0,0,0,0,-0.0243,-0.0284,-0.0234,-0.0196,-0.0192,-0.0163,-0.0161,-0.016,-0.0103,-0.0103,-0.0102,-0.0101,0.0047,0.0053,0.0058,0.0075,0,0,0.0074,0.0076,0,0,0,0,0,0,0,0,-0.0245,-0.0241,-0.0202,-0.0198,-0.0194,-0.0141,-0.0124,-0.0078,-0.0104,-0.0136,-0.0102,-0.0101,-0.0008,0.0002,0.0014,0.0082,0.0088,0.0075,0.0078,0.008,0.0082,0,0,0,0,0,0,0,-0.0248,-0.0243,-0.0205,-0.0202,-0.0196,-0.017,-0.0163,-0.0115,-0.0075,-0.0133,-0.0129,-0.0122,-0.0004,0.0008,0.0018,0.0091,0.0074,0.0079,0.0082,0.0084,0.0195,0.0195,0,0,0,0,0,0,-0.0261,-0.0246,-0.0207,-0.0203,-0.0219,-0.017,-0.0162,-0.0159,-0.0077,-0.0065,-0.0123,-0.012,-0.0001,0.0012,0.0024,0.0062,0.008,0.0085,0.0088,0.0196,0.0195,0.0195,0,0,0,0,0,0,-0.0263,-0.0258,-0.021,-0.0223,-0.0215,-0.017,-0.0166,-0.0158,-0.014,-0.0071,-0.0056,-0.0114,-0.0,0.0016,0.006,0.0068,0.0087,0.0092,0.0196,0.0195,0.0195,0.013,0,0,0,0,0,0,-0.0264,-0.026,-0.0259,-0.0224,-0.0215,-0.0191,-0.0167,-0.0157,-0.0138,-0.0133,-0.0058,-0.0044,0.0002,0.0052,0.0065,0.0076,0.0096,0.0196,0.0196,0.0195,0.0133,0.0128,0.0124,0,0,0,0,0,-0.0266,-0.0267,-0.026,-0.0255,-0.0217,-0.0191,-0.0184,-0.0149,-0.0138,-0.013,-0.0089,-0.0046,0.0059,0.0056,0.0072,0.0084,0.0196,0.0196,0.0195,0.0135,0.0129,0.0124,0,0,0,0,0,0,-0.0284,-0.026,-0.0251,-0.0244,-0.0221,-0.0182,-0.0172,-0.0153,-0.0116,-0.011,-0.0049,-0.0032,0.001,0.0051,0.0046,0.0113,0.0135,0.0138,0.0084,0.0079,0.0074,0.0067,0.0101,0,0,0,0,0,-0.0292,-0.029,-0.026,-0.0255,-0.0245,-0.0212,-0.0198,-0.0176,-0.0141,-0.0124,-0.0076,-0.0025,0.0018,0.0051,0.0095,0.0133,0.0171,0.0151,0.0146,0.0142,0.0146,0.0194,0.0194,0.0193,0.0193,0.0193,0,0,-0.03,-0.0286,-0.0285,-0.026,-0.024,-0.023,-0.0201,-0.0182,-0.0171,-0.0112,-0.0081,-0.004,0.0023,0.0061,0.0085,0.01,0.016,0.0142,0.0137,0.0144,0.0194,0.0194,0.0194,0.0193,0.0193,0.0193,0,0,-0.0315,-0.0301,-0.0305,-0.0289,-0.0264,-0.0242,-0.0241,-0.0205,-0.0183,-0.0155,-0.0112,-0.0071,-0.0003,0.0043,0.0074,0.0072,0.0129,0.0088,0.0068,0.0114,0.0114,0.0115,0.0153,0.0158,0.0091,0.0091,0.0091,0,-0.0326,-0.0326,-0.03,-0.0299,-0.029,-0.0253,-0.0254,-0.0228,-0.0183,-0.0164,-0.0152,-0.0062,-0.0011,0.0042,0.004,0.0064,0.0094,0.0083,0.0108,0.0109,0.0112,0.0151,0.0157,0.0088,0.0088,0.0088,0.0089,0,-0.0342,-0.0343,-0.0343,-0.0333,-0.0318,-0.0313,-0.0278,-0.0259,-0.0235,-0.0205,-0.0156,-0.0096,-0.0039,-0.0019,0.0012,0.0055,0.0072,0.009,0.0119,0.0108,0.0149,0.0157,0.0083,0.0084,0.0085,0.0086,0,0,-0.0368,-0.0359,-0.036,-0.0366,-0.0338,-0.033,-0.0311,-0.028,-0.0265,-0.022,-0.0193,-0.0124,-0.009,-0.0053,-0.0006,0.0035,0.0072,0.0065,0.0069,0.0098,0.0167,0.0185,0.0196,0.0092,0.0093,0.0094,0.0187,0,-0.0392,-0.0408,-0.0389,-0.0401,-0.0408,-0.0371,-0.0357,-0.0322,-0.0284,-0.0247,-0.0181,-0.0138,-0.0102,-0.0077,-0.003,0.005,0.0091,0.0045,0.0179,0.0183,0.0197,0.0205,0.0185,0.0266,0.0195,0.0196,0.0197,0,-0.0415,-0.0425,-0.0446,-0.0443,-0.0441,-0.0438,-0.0409,-0.0389,-0.0325,-0.0292,-0.0236,-0.0183,-0.0109,-0.0085,0.0045,0.0013,0.0084,0.0141,0.0147,0.0194,0.0216,0.0269,0.0283,0.0211,0.0209,0.0208,0.0208,0,-0.0458,-0.0464,-0.0486,-0.0486,-0.0473,-0.0471,-0.0458,-0.0406,-0.0385,-0.032,-0.0293,-0.0203,-0.0149,-0.0057,0.0064,0.0056,0.0205,0.0212,0.0295,0.0297,0.0323,0.0325,0.03,0.03,0.03,0.03,0.0299,0,-0.0496,-0.0512,-0.0511,-0.0526,-0.0546,-0.0516,-0.0515,-0.0484,-0.0431,-0.0405,-0.032,-0.027,-0.0139,-0.0037,0.006,0.0206,0.0207,0.0298,0.0326,0.0299,0.0298,0.0286,0.0283,0.0303,0.0302,0.0302,0.0301,0,-0.0541,-0.054,-0.0568,-0.0569,-0.057,-0.0586,-0.0566,-0.0559,-0.0498,-0.046,-0.0442,-0.0309,-0.0171,-0.0039,0.0127,0.0209,0.0335,0.0385,0.0339,0.036,0.0395,0.0388,0.0485,0.0487,0.0488,0.0489,0.049,0,-0.0566,-0.0587,-0.0611,-0.0633,-0.0637,-0.0649,-0.0656,-0.0606,-0.0597,-0.048,-0.0469,-0.0316,-0.021,0.0044,0.0214,0.0389,0.0386,0.0465,0.0448,0.0399,0.0417,0.0407,0.0398,0.0456,0.0457,0.0457,0.0457,0,-0.0614,-0.0622,-0.0646,-0.0699,-0.072,-0.0741,-0.0746,-0.0748,-0.068,-0.063,-0.0532,-0.0429,-0.0155,0.005,0.0291,0.0391,0.0432,0.048,0.0459,0.0406,0.0378,0.0392,0.0384,0.0461,0.0461,0.0461,0.0461,0.046,-0.0644,-0.0677,-0.0713,-0.0761,-0.0793,-0.0831,-0.0839,-0.0829,-0.0808,-0.0706,-0.0615,-0.0425,-0.0194,0.0161,0.0325,0.0495,0.0498,0.0529,0.0525,0.0521,0.0495,0.047,0.0566,0.0566,0.0566,0.0567,0.0567,0,-0.0679,-0.0718,-0.0771,-0.0827,-0.0875,-0.0875,-0.0893,-0.0874,-0.0849,-0.0725,-0.0624,-0.0383,-0.0127,0.0131,0.0405,0.0547,0.0533,0.0563,0.0514,0.051,0.0507,0.0477,0.0545,0.0545,0.0546,0.0546,0,0,-0.0697,-0.0758,-0.0793,-0.0887,-0.0922,-0.0956,-0.0961,-0.0917,-0.0827,-0.0703,-0.0551,-0.0384,-0.0078,0.0091,0.028,0.0431,0.0429,0.0441,0.0446,0.0363,0.0357,0.048,0.0429,0,0,0,0,0]}],[{"header":{"parameterUnit":"m.s-1","parameterCategory":2,"la1":30.2991,"la2":30.254,"lo1":-89.0895,"lo2":-89.0444,"dy":0.0017,"dx":0.0017,"nx":28,"ny":28,"refTime":"2025-09-15T09:00:00:Z","depth":"4","parameterNumber":2,"parameterNumberName":"U-component_of_CURRENTS"},"data":[0,0,0,0,0,0,0,0,0,0,0,0,0,0,0,0,0,0,0,0,0,0,0,0,0,0,0,0,0,0,0,0,0,0,0,0,0,0,0,0,0,0,0,0,0,0,0,0,0,0,0,0,0,0,0,0,0,0,-0.1307,-0.1307,0,-0.1374,-0.1375,-0.1376,-0.1389,-0.1388,-0.1388,-0.1387,-0.1409,-0.141,-0.1412,0,0,0,0,0,0,0,0,0,0,0,0,0,-0.1225,-0.1227,-0.1307,-0.1307,-0.1308,-0.1374,-0.1375,-0.1376,-0.1389,-0.1388,-0.1388,-0.1387,-0.1409,-0.141,-0.1412,0,0,0,0,0,0,0,0,0,0,0,0,0,-0.1274,-0.1227,-0.1307,-0.1322,-0.1324,-0.1374,-0.1375,-0.1376,-0.1389,-0.1388,-0.1387,-0.1387,-0.1408,-0.141,-0.1412,-0.1441,0,0,-0.1417,-0.1418,0,0,0,0,0,0,0,0,-0.1271,-0.1277,-0.1319,-0.1321,-0.1323,-0.1372,-0.1355,-0.1395,-0.1389,-0.1365,-0.1387,-0.1386,-0.1393,-0.1396,-0.1412,-0.1442,-0.1443,-0.1417,-0.1418,-0.1419,-0.142,0,0,0,0,0,0,0,-0.1268,-0.1275,-0.1334,-0.132,-0.1323,-0.1338,-0.1344,-0.1363,-0.1383,-0.1367,-0.1368,-0.1375,-0.1393,-0.141,-0.1413,-0.1443,-0.1417,-0.1419,-0.142,-0.142,-0.1486,-0.1487,0,0,0,0,0,0,-0.1258,-0.1272,-0.1332,-0.1336,-0.1294,-0.134,-0.1347,-0.1358,-0.1384,-0.1387,-0.1376,-0.1375,-0.1408,-0.1411,-0.1413,-0.1462,-0.1419,-0.1421,-0.1422,-0.1485,-0.1486,-0.1487,0,0,0,0,0,0,-0.1256,-0.1262,-0.1329,-0.1304,-0.1314,-0.1342,-0.1355,-0.1359,-0.1397,-0.139,-0.1393,-0.141,-0.1407,-0.1411,-0.1434,-0.1462,-0.1421,-0.1423,-0.1485,-0.1486,-0.1487,-0.155,0,0,0,0,0,0,-0.1253,-0.1262,-0.1288,-0.1304,-0.1315,-0.1372,-0.1356,-0.1361,-0.14,-0.1401,-0.142,-0.142,-0.1407,-0.1431,-0.1435,-0.1463,-0.1424,-0.1484,-0.1485,-0.1486,-0.1547,-0.1553,-0.1558,0,0,0,0,0,-0.125,-0.1287,-0.1289,-0.1298,-0.1343,-0.1373,-0.1381,-0.1398,-0.1403,-0.1427,-0.1428,-0.1421,-0.1442,-0.1434,-0.1438,-0.1467,-0.1483,-0.1485,-0.1486,-0.1544,-0.1552,-0.1558,0,0,0,0,0,0,-0.1283,-0.1292,-0.1295,-0.1338,-0.1358,-0.1375,-0.1408,-0.1418,-0.1443,-0.1447,-0.1437,-0.1437,-0.1469,-0.1458,-0.1449,-0.1487,-0.1459,-0.1462,-0.1502,-0.1509,-0.1515,-0.1495,-0.1426,0,0,0,0,0,-0.1298,-0.1318,-0.1332,-0.1369,-0.1381,-0.14,-0.1423,-0.1433,-0.1447,-0.146,-0.1469,-0.1473,-0.1479,-0.1485,-0.1493,-0.1521,-0.1494,-0.1539,-0.1544,-0.1549,-0.1535,-0.1527,-0.153,-0.1492,-0.1492,-0.1492,0,0,-0.1322,-0.1331,-0.1345,-0.1376,-0.1394,-0.1412,-0.1413,-0.1453,-0.1469,-0.1458,-0.1495,-0.1504,-0.1492,-0.1517,-0.1529,-0.1511,-0.1547,-0.1551,-0.1556,-0.1538,-0.1529,-0.1532,-0.1535,-0.1493,-0.1493,-0.1493,0,0,-0.1347,-0.1386,-0.1393,-0.1413,-0.144,-0.1452,-0.1467,-0.1496,-0.1515,-0.1547,-0.1538,-0.1556,-0.1579,-0.1568,-0.1564,-0.1606,-0.1583,-0.1619,-0.163,-0.1623,-0.1626,-0.1628,-0.1605,-0.1605,-0.1616,-0.1616,-0.1616,0,-0.1369,-0.1386,-0.1407,-0.1418,-0.1438,-0.1468,-0.1483,-0.151,-0.1544,-0.1556,-0.1563,-0.1591,-0.1595,-0.16,-0.1612,-0.162,-0.1606,-0.1609,-0.1631,-0.1632,-0.1633,-0.1609,-0.1608,-0.1619,-0.1619,-0.1618,-0.1618,0,-0.1375,-0.1408,-0.1424,-0.1435,-0.1465,-0.1496,-0.1519,-0.1556,-0.1585,-0.1599,-0.1633,-0.164,-0.1645,-0.1661,-0.165,-0.1664,-0.1649,-0.1646,-0.1614,-0.1641,-0.1614,-0.1611,-0.1624,-0.1623,-0.1622,-0.1621,0,0,-0.1351,-0.1411,-0.1415,-0.1434,-0.148,-0.1502,-0.154,-0.157,-0.1592,-0.1632,-0.1651,-0.1674,-0.1685,-0.1678,-0.1681,-0.1676,-0.1685,-0.1668,-0.1666,-0.1645,-0.166,-0.1547,-0.1533,-0.1693,-0.1693,-0.1693,-0.164,0,-0.134,-0.1371,-0.1401,-0.1444,-0.1466,-0.1513,-0.1544,-0.1582,-0.1617,-0.1649,-0.1662,-0.1686,-0.1689,-0.1702,-0.17,-0.1692,-0.168,-0.1698,-0.1636,-0.1633,-0.1529,-0.1526,-0.1692,-0.1638,-0.1638,-0.1637,-0.1637,0,-0.1309,-0.1342,-0.138,-0.1453,-0.1465,-0.1498,-0.1556,-0.1588,-0.1633,-0.1659,-0.1681,-0.1696,-0.1703,-0.1705,-0.1685,-0.17,-0.168,-0.1667,-0.1665,-0.1528,-0.1513,-0.1603,-0.1631,-0.1632,-0.1632,-0.1633,-0.1633,0,-0.126,-0.1323,-0.1361,-0.1385,-0.1464,-0.1495,-0.1538,-0.1591,-0.1617,-0.1665,-0.1683,-0.1697,-0.1703,-0.169,-0.1667,-0.1682,-0.1631,-0.1648,-0.152,-0.1512,-0.1604,-0.1602,-0.162,-0.162,-0.162,-0.162,-0.162,0,-0.1222,-0.1255,-0.1349,-0.1369,-0.1415,-0.148,-0.1524,-0.1567,-0.1621,-0.1628,-0.1685,-0.1676,-0.1701,-0.1678,-0.1661,-0.1565,-0.1622,-0.1503,-0.1484,-0.1633,-0.1635,-0.1603,-0.1601,-0.1618,-0.1619,-0.1619,-0.1619,0,-0.1157,-0.1221,-0.127,-0.1364,-0.1394,-0.1427,-0.1513,-0.1528,-0.16,-0.1608,-0.1622,-0.1659,-0.1615,-0.1614,-0.158,-0.1533,-0.1474,-0.1426,-0.1568,-0.1562,-0.1363,-0.1366,-0.1276,-0.1272,-0.1268,-0.1264,-0.1262,0,-0.1124,-0.1145,-0.1251,-0.1274,-0.132,-0.1382,-0.1407,-0.1499,-0.1507,-0.1568,-0.1547,-0.1546,-0.1545,-0.1404,-0.1426,-0.136,-0.1348,-0.1319,-0.1352,-0.1333,-0.1325,-0.1334,-0.1342,-0.1255,-0.1254,-0.1253,-0.1252,0,-0.1056,-0.1106,-0.1144,-0.119,-0.1229,-0.1268,-0.1314,-0.1317,-0.1392,-0.1473,-0.1425,-0.14,-0.1341,-0.1309,-0.126,-0.1223,-0.1343,-0.1278,-0.1287,-0.1318,-0.1307,-0.1305,-0.1317,-0.1239,-0.1241,-0.1242,-0.1243,0,-0.0999,-0.1006,-0.1053,-0.1079,-0.1122,-0.112,-0.1176,-0.1178,-0.1208,-0.1289,-0.1261,-0.1269,-0.1311,-0.1234,-0.1191,-0.1139,-0.113,-0.1112,-0.113,-0.1145,-0.1126,-0.1095,-0.0926,0,0,0,0,0,-0.0934,-0.0918,-0.0932,-0.0954,-0.0991,-0.1013,-0.1081,-0.1138,-0.122,-0.1145,-0.1205,-0.1146,-0.109,-0.1106,-0.102,-0.112,-0.1128,-0.1017,-0.1117,-0.1164,-0.118,-0.1169,0,0,0,0,0,0,-0.0884,-0.0894,-0.0888,-0.0828,-0.082,-0.0844,-0.0884,-0.0954,-0.093,-0.1024,-0.0995,-0.1071,-0.1027,-0.1101,-0.099,-0.0992,-0.1031,-0.1037,-0.1033,-0.1155,-0.1169,-0.1182,-0.1176,0,0,0,0,0]},{"header":{"parameterUnit":"m.s-1","parameterCategory":2,"la1":30.2991,"la2":30.254,"lo1":-89.0895,"lo2":-89.0444,"dy":0.0017,"dx":0.0017,"nx":28,"ny":28,"refTime":"2025-09-15T09:00:00:Z","depth":"4","parameterNumber":3,"parameterNumberName":"V-component_of_CURRENTS"},"data":[0,0,0,0,0,0,0,0,0,0,0,0,0,0,0,0,0,0,0,0,0,0,0,0,0,0,0,0,0,0,0,0,0,0,0,0,0,0,0,0,0,0,0,0,0,0,0,0,0,0,0,0,0,0,0,0,0,0,-0.0196,-0.0196,0,-0.0164,-0.0163,-0.0163,-0.0154,-0.0155,-0.0155,-0.0155,-0.0101,-0.0099,-0.0097,0,0,0,0,0,0,0,0,0,0,0,0,0,-0.0217,-0.0217,-0.0196,-0.0196,-0.0195,-0.0164,-0.0163,-0.0163,-0.0154,-0.0155,-0.0155,-0.0155,-0.0101,-0.0099,-0.0097,0,0,0,0,0,0,0,0,0,0,0,0,0,-0.0198,-0.0216,-0.0196,-0.0188,-0.0187,-0.0164,-0.0163,-0.0163,-0.0154,-0.0155,-0.0155,-0.0156,-0.0102,-0.01,-0.0097,-0.0074,0,0,-0.0089,-0.0088,0,0,0,0,0,0,0,0,-0.0199,-0.0197,-0.0189,-0.0188,-0.0187,-0.0164,-0.0151,-0.0132,-0.0154,-0.0166,-0.0155,-0.0156,-0.012,-0.0116,-0.0108,-0.0071,-0.0069,-0.0089,-0.0087,-0.0086,-0.0086,0,0,0,0,0,0,0,-0.02,-0.0198,-0.0182,-0.0189,-0.0188,-0.0174,-0.0172,-0.0147,-0.014,-0.0165,-0.0164,-0.0162,-0.0119,-0.0111,-0.0107,-0.0068,-0.0089,-0.0087,-0.0085,-0.0084,-0.0029,-0.0029,0,0,0,0,0,0,-0.0207,-0.02,-0.0184,-0.0182,-0.0195,-0.0174,-0.0172,-0.0171,-0.0141,-0.0137,-0.0162,-0.0162,-0.0115,-0.011,-0.0105,-0.0078,-0.0086,-0.0084,-0.0083,-0.0029,-0.0029,-0.003,0,0,0,0,0,0,-0.0208,-0.0206,-0.0185,-0.019,-0.0187,-0.0173,-0.0172,-0.017,-0.0164,-0.0139,-0.0135,-0.0159,-0.0115,-0.0109,-0.0092,-0.0076,-0.0083,-0.0081,-0.0029,-0.0029,-0.0029,-0.0023,0,0,0,0,0,0,-0.0208,-0.0206,-0.0208,-0.0191,-0.0187,-0.0176,-0.0172,-0.0169,-0.0162,-0.0162,-0.0135,-0.013,-0.0115,-0.0096,-0.009,-0.0073,-0.0079,-0.0029,-0.0029,-0.0029,-0.0023,-0.0023,-0.0023,0,0,0,0,0,-0.0209,-0.0209,-0.0209,-0.0207,-0.019,-0.0176,-0.0172,-0.0163,-0.0162,-0.0159,-0.0146,-0.0131,-0.0092,-0.0094,-0.0087,-0.0069,-0.0029,-0.0029,-0.0029,-0.0023,-0.0023,-0.0023,0,0,0,0,0,0,-0.0217,-0.0208,-0.0207,-0.0204,-0.0194,-0.0175,-0.0172,-0.0164,-0.0151,-0.0152,-0.013,-0.0124,-0.0101,-0.0092,-0.0094,-0.0056,-0.0058,-0.0057,-0.0057,-0.0056,-0.0056,-0.0067,-0.0076,0,0,0,0,0,-0.0221,-0.0221,-0.0208,-0.0207,-0.0202,-0.0187,-0.0181,-0.0174,-0.016,-0.0155,-0.0137,-0.0118,-0.0094,-0.0083,-0.0063,-0.0041,-0.0023,-0.0027,-0.0027,-0.0026,-0.0032,0.0013,0.0018,-0.003,-0.003,-0.003,0,0,-0.0225,-0.0219,-0.0221,-0.0209,-0.02,-0.0198,-0.0184,-0.0176,-0.0171,-0.015,-0.0138,-0.0114,-0.0089,-0.0065,-0.0054,-0.0056,-0.0004,-0.0027,-0.0026,-0.0032,0.0014,0.0019,0.0023,-0.003,-0.003,-0.003,0,0,-0.0235,-0.0228,-0.0234,-0.0227,-0.0216,-0.0205,-0.0204,-0.0186,-0.0176,-0.0162,-0.0141,-0.0111,-0.0087,-0.0057,-0.0041,-0.0028,-0.0003,-0.0024,-0.0028,0.0016,0.0021,0.0025,0.0054,0.0061,-0.0025,-0.0025,-0.0025,0,-0.0243,-0.0247,-0.0232,-0.0234,-0.0232,-0.0211,-0.0215,-0.0198,-0.0177,-0.0164,-0.0164,-0.0107,-0.008,-0.0039,-0.0036,-0.0024,-0.0006,-0.0027,0.0018,0.0023,0.0027,0.0055,0.0063,-0.0024,-0.0024,-0.0024,-0.0024,0,-0.0257,-0.0261,-0.0262,-0.0261,-0.0253,-0.0252,-0.0231,-0.0218,-0.0204,-0.0183,-0.0144,-0.0106,-0.0074,-0.0053,-0.004,0.0007,0.0007,0.0017,0.0021,0.0033,0.0061,0.0069,-0.0024,-0.0024,-0.0024,-0.0024,0,0,-0.0275,-0.0274,-0.0277,-0.0284,-0.0269,-0.0265,-0.0251,-0.0229,-0.0218,-0.0185,-0.0163,-0.0107,-0.0081,-0.0062,-0.0028,0.0012,0.0066,0.0022,0.0024,0.0055,0.0152,0.0129,0.0135,0.0085,0.0086,0.0087,0.016,0,-0.0294,-0.0312,-0.03,-0.0314,-0.0321,-0.0296,-0.0285,-0.026,-0.0231,-0.0203,-0.0145,-0.0115,-0.0085,-0.0067,-0.0018,0.0043,0.0086,0.0045,0.0131,0.0133,0.0116,0.0143,0.0092,0.0166,0.0168,0.0169,0.017,0,-0.0314,-0.0324,-0.0346,-0.0346,-0.0346,-0.0348,-0.0327,-0.0313,-0.026,-0.0235,-0.0186,-0.0145,-0.0076,-0.0058,0.0058,0.0028,0.0087,0.0135,0.0139,0.0118,0.0124,0.0151,0.0184,0.0183,0.0182,0.0181,0.018,0,-0.0344,-0.0355,-0.0376,-0.0377,-0.0372,-0.0374,-0.0367,-0.0326,-0.0313,-0.0257,-0.0239,-0.0154,-0.0113,-0.0026,0.0072,0.0067,0.0192,0.0202,0.0238,0.0237,0.0233,0.0228,0.0285,0.0285,0.0285,0.0285,0.0284,0,-0.0368,-0.0386,-0.0396,-0.0409,-0.0432,-0.0411,-0.0418,-0.0393,-0.0354,-0.034,-0.0262,-0.0228,-0.0103,-0.0019,0.0068,0.0173,0.0195,0.0241,0.0258,0.0233,0.0227,0.0239,0.0233,0.0287,0.0287,0.0286,0.0286,0,-0.0398,-0.0404,-0.0433,-0.0444,-0.0451,-0.0469,-0.0468,-0.0468,-0.0421,-0.04,-0.0385,-0.0276,-0.0164,-0.0042,0.0105,0.0164,0.0268,0.03,0.0254,0.0268,0.0282,0.0275,0.0348,0.0348,0.0348,0.0348,0.0348,0,-0.0413,-0.0433,-0.0471,-0.0499,-0.051,-0.0532,-0.0548,-0.0513,-0.051,-0.043,-0.0424,-0.0307,-0.0228,-0.0038,0.0094,0.0258,0.0279,0.0324,0.0313,0.0281,0.0291,0.0284,0.0278,0.0347,0.0347,0.0347,0.0347,0,-0.0444,-0.0463,-0.0489,-0.0551,-0.0585,-0.0614,-0.0631,-0.063,-0.0584,-0.0543,-0.0457,-0.0341,-0.021,-0.0051,0.0078,0.0196,0.0289,0.0323,0.0324,0.0315,0.0281,0.029,0.0284,0.0347,0.0347,0.0347,0.0347,0,-0.0468,-0.05,-0.0544,-0.0594,-0.0645,-0.0681,-0.0681,-0.0667,-0.0647,-0.0556,-0.0529,-0.0366,-0.0264,-0.0082,0.0038,0.015,0.0179,0.02,0.0208,0.021,0.0147,0.0083,0.0107,0,0,0,0,0,-0.0488,-0.0527,-0.0582,-0.0635,-0.0688,-0.0711,-0.073,-0.0718,-0.0675,-0.063,-0.0575,-0.0453,-0.0247,-0.0143,-0.0035,0.0032,0.0192,0.016,0.0218,0.0345,0.0345,0.0293,0,0,0,0,0,0,-0.0503,-0.0558,-0.0586,-0.066,-0.07,-0.0749,-0.0762,-0.0732,-0.0697,-0.0636,-0.0525,-0.0444,-0.0242,-0.0311,-0.0037,0.0002,0.0048,0.0268,0.027,0.0345,0.0345,0.0345,0.0291,0,0,0,0,0]}]]